skip to main content
Office of the Registrar
The University of Mississippi

UM Transfer Course Equivalencies

Ouachita Baptist University

EO/FICE Code: C001102

Ouachita Baptist University Course(s) UM Equivalent Credits Equivalency Validity
ACCT 2013 — Principles Accounting I Accy 201 – Introduction to Accounting Principles I [UM Catalog] 3.00 01/01/1950 - 12/31/9999
ACCT 2023 — Principles Accounting II Accy 202 – Introduction to Accounting Principles II [UM Catalog] 3.00 01/01/1950 - 12/31/9999
ACT 2013 — Principles Accounting Accy 201 – Introduction to Accounting Principles I [UM Catalog] 3.00 01/01/1950 - 12/31/9999
ART 1023 — Visual Fund II ART 1XX – Generic 100 Level Art 3.00 01/01/1950 - 12/31/9999
ASKL 1001 — Resource Learning UM 1XX – Generic 100 Level General University 1.00 01/01/1950 - 12/31/9999
ASKL 1011 — Transition Sem UM 1XX – Generic 100 Level General University 1.00 01/01/1950 - 12/31/9999
ASKL 1023 — Intr/Solvg Skls UM 1XX – Generic 100 Level General University 3.00 01/01/1950 - 12/31/9999
ATEP 2083 — Intro/Ther Tech ES 394 – Therapeutic Exercise and Fitness [UM Catalog] 3.00 01/01/1950 - 12/31/9999
BIOL 1014 — General Zoology Bisc 1XX – Generic 100 Level Biology 4.00 01/01/1950 - 12/31/9999
BIOL 1024 — General Botany Bisc 1XX – Generic 100 Level Biology 4.00 01/01/1950 - 12/31/9999
BUAD 1003 — Intro Econ/Bus BUS 1XX – Generic 100 Level Business 3.00 01/01/1950 - 12/31/9999
BUAD 1033 — Microcomptr App Csci 191 – Office Applications [UM Catalog] 3.00 01/01/1950 - 12/31/9999
CHEM 1004 — General Chem I Chem 105 – General Chemistry I [UM Catalog] 3.00 01/01/1950 - 12/31/9999
Chem 115 – General Chemistry Laboratory I [UM Catalog] 1.00
COMM 3063 — Principles of Advertising Mktg 353 – Advertising and Promotion [UM Catalog] 3.00 01/01/1950 - 12/31/9999
CORE 1012 — Liberal Arts UM 1XX – Generic 100 Level General University 2.00 01/01/1950 - 12/31/9999
CORE 1012.0 — Wellness HP 1XX – Generic 100 Level Health Promotion 2.00 01/01/1950 - 12/31/9999
CORE 1013 — Grammar and Rhetoric Writ 101 – First-Year Writing I [UM Catalog] 3.00 08/22/2011 - 12/31/9999
CORE 1022 — Wellness HP 1XX – Generic 100 Level Health Promotion 2.00 01/01/1950 - 12/31/9999
CORE 1023.0 — Contemp World UM 1XX – Generic 100 Level General University 3.00 01/01/1950 - 12/31/9999
CORE 1033 — Applied Math MATH 1XX – Generic 100 Level Mathematics 3.00 01/01/1950 - 12/31/9999
CORE 1043 — Composition I Writ 101 – First-Year Writing I [UM Catalog] 3.00 08/22/2011 - 12/31/9999
CORE 1053 — Composition II Writ 102 – First-Year Writing II [UM Catalog] 3.00 08/22/2011 - 12/31/9999
CORE 1113 — Bible Survey REL 1XX – Generic 100 Level Religion 3.00 01/01/1950 - 12/31/9999
CORE 1113.0 — Bible Survey REL 1XX – Generic 100 Level Religion 3.00 01/01/1950 - 12/31/9999
CORE 1123 — Bible: Interp REL 1XX – Generic 100 Level Religion 3.00 01/01/1950 - 12/31/9999
CORE 1933 — Hon Bible Survey REL 1XX – Generic 100 Level Religion 3.00 01/01/1950 - 12/31/9999
CORE 1953 — Hon Comp I UM 1XX – Generic 100 Level General University 3.00 01/01/1950 - 12/31/9999
CORE 2001.0 — Soph Reading UM 2XX – Generic 200 Level General University 1.00 01/01/1950 - 12/31/9999
CORE 2113 — AM Heritage HST 1XX – Generic 100 Level History 3.00 01/01/1950 - 12/31/9999
CORE 2123 — AM Letters UM 2XX – Generic 200 Level General University 3.00 01/01/1950 - 12/31/9999
CORE 2223 — Western Letters Liba 202 – Interdisciplinary Humanities [UM Catalog] 3.00 01/01/1950 - 12/31/9999
CORE 2313.0 — Physical Science Phys 1XX – Generic 100 Level Physics 3.00 01/01/1950 - 12/31/9999
CORE 2323 — Life Science UM 2XX – Generic 200 Level General University 3.00 01/01/1950 - 12/31/9999
CORE 2433 — Personal Finance UM 2XX – Generic 200 Level General University 3.00 01/01/1950 - 12/31/9999
CORE 3001.0 — Junior Reading UM 3XX – Generic 300 Level General University 1.00 01/01/1950 - 12/31/9999
CORE 3133.0 — FA: Theatre Thea 201 – Appreciation of the Theatre [UM Catalog] 3.00 01/01/1950 - 12/31/9999
DIET 1001 — Intro Diet/Nutr UM 1XX – Generic 100 Level General University 1.00 01/01/1950 - 12/31/9999
DIET 3043 — Sports Nutritn UM 3XX – Generic 300 Level General University 3.00 01/01/1950 - 12/31/9999
DIET 3053 — Nutrition NHM 311 – Nutrition [UM Catalog] 3.00 01/01/1950 - 12/31/9999
EDFN 1001 — Freshman Seminar EDHE 1XX – Generic 100 Level Education, Higher Educ 1.00 01/01/1950 - 12/31/9999
GNED 1000 — Biblio Comptncy UM 1XX – Generic 100 Level General University 0.50 01/01/1950 - 12/31/9999
GNED 1023 — Fr Comp/Essay Writ 101 – First-Year Writing I [UM Catalog] 3.00 08/22/2011 - 12/31/9999
GNED 1033 — Fres Comp/Lit Writ 102 – First-Year Writing II [UM Catalog] 3.00 08/22/2011 - 12/31/9999
GNED 1053 — O T Survey REL 1XX – Generic 100 Level Religion 2.00 01/01/1950 - 12/31/9999
HBIO 3064 — Hum Anat/Phys Bisc 206 – Human Anatomy and Physiology I [UM Catalog] 4.00 01/01/1950 - 12/31/9999
HCHM 1004 — Intro Chem UM 1XX – Generic 100 Level General University 4.00 01/01/1950 - 12/31/9999
HED 1012 — First Aid HP 1XX – Generic 100 Level Health Promotion 2.00 01/01/1950 - 12/31/9999
HPER 2003 — Camp Leadership PRM 2XX – Generic 200 Level Park & Recreation Mgmt 3.00 01/01/1950 - 12/31/9999
HPHI 2013 — Intro to Phil Phil 101 – Introduction to Philosophy [UM Catalog] 3.00 01/01/1950 - 12/31/9999
KIN 1012 — First Aid HP 1XX – Generic 100 Level Health Promotion 2.00 01/01/1950 - 12/31/9999
KIN 1113 — Fund Motor Dev ES 338 – Motor Learning and Control [UM Catalog] 3.00 01/01/1950 - 12/31/9999
KIN 2093 — Bas/Human Movmt ES 346 – Kinesiology [UM Catalog] 3.00 01/01/1950 - 12/31/9999
KIN 2101 — Methods/Golf EL 139 – Golf [UM Catalog] 1.00 01/01/1950 - 12/31/9999
LST 3013 — Prog Desgn & Mgmt SRA 302 – Program Planning & Development [UM Catalog] 3.00 01/01/1950 - 12/31/9999
MATH 1003 — College Algebra Math 121 – College Algebra [UM Catalog] 3.00 01/01/1950 - 12/31/9999
MATH 2033 — Math/Elem Tch Math 245 – Mathematics for Elementary Teachers I [UM Catalog] 3.00 01/01/1950 - 12/31/9999
MGMT 3043 — Org Behavior Mgmt Bus 271 – Business Communication [UM Catalog] 3.00 01/01/1950 - 12/31/9999
MGMT 4083 — Business Ethics Phil 357 – Business Ethics [UM Catalog] 3.00 01/01/1950 - 12/31/9999
MKTG 3033 — Prin of Marketing Mktg 351 – Marketing Principles [UM Catalog] 3.00 01/01/1950 - 12/31/9999
MKTG 4113 — Consumer Behavior Mktg 367 – Consumer Behavior [UM Catalog] 3.00 01/01/1950 - 12/31/9999
MUAP 1052 — Voice Principal MUS:ST:V 2XX – Generic 200 Level Music Studio Voice 2.00 01/01/1950 - 12/31/9999
MUAP 1053.0 — Voice Principal MUS:ST:V 2XX – Generic 200 Level Music Studio Voice 3.00 01/01/1950 - 12/31/9999
MUAP 1061 — Vocal Diction MUS:CLSS 1XX – Generic 100 Level Music Class 1.00 01/01/1950 - 12/31/9999
MUAP 1101.0 — Piano Secondary MUS:ST:K 1XX – Generic 100 Level Music Studio Keyboard 1.00 01/01/1950 - 12/31/9999
MUAP 1271.0 — Vocal Diction I MUS:CLSS 1XX – Generic 100 Level Music Class 1.00 01/01/1950 - 12/31/9999
MUAP 1591 — Saxophone Elect MUS:ST:W 1XX – Generic 100 Level Music Studio Woodwinds 1.00 01/01/1950 - 12/31/9999
MUAP 1951 — Vocal Diction MUS:CLSS 1XX – Generic 100 Level Music Class 1.00 01/01/1950 - 12/31/9999
MUED 2063 — Mus/Clrm Teach Mus 371 – Elementary School Music [UM Catalog] 3.00 01/01/1950 - 12/31/9999
MUEN 1000.5 — Concert Choir UM 1XX – Generic 100 Level General University 0.50 01/01/1950 - 12/31/9999
MUEN 1041.0 — Opera Workshop MUS:ENS 1XX – Generic 100 Level Music Ensemble 1.00 01/01/1950 - 12/31/9999
MUEN 1140.5 — Women's Chorus MUS:ENS 1XX – Generic 100 Level Music Ensemble 0.50 01/01/1950 - 12/31/9999
MUTH 1002 — Ear Training 1 MUS:CLSS 1XX – Generic 100 Level Music Class 2.00 01/01/1950 - 12/31/9999
MUTH 1002.0 — Aural Skills I MUS:CLSS 1XX – Generic 100 Level Music Class 2.00 01/01/1950 - 12/31/9999
MUTH 1002.0 — Aural Skills I Mus 105 – Music Theory and Analysis I [UM Catalog] 3.00 01/01/1950 - 12/31/9999
MUTH 1022.0 — Theory I MUS:CLSS 1XX – Generic 100 Level Music Class 1.00
MUTH 1012 — Ear Training 2 MUS:CLSS 1XX – Generic 100 Level Music Class 2.00 01/01/1950 - 12/31/9999
MUTH 1022.0 — Theory I MUS:CLSS 1XX – Generic 100 Level Music Class 2.00 01/01/1950 - 12/31/9999
MUTH 1032 — Harmony 2 MUS:CLSS 1XX – Generic 100 Level Music Class 2.00 01/01/1950 - 12/31/9999
MUTH 1301 — Basic Theory MUS:CLSS 1XX – Generic 100 Level Music Class 1.00 01/01/1950 - 12/31/9999
MUTH 1312 — Surv/Mus Lit 1 MUS:CLSS 1XX – Generic 100 Level Music Class 2.00 01/01/1950 - 12/31/9999
PEAC 2001 — Beginners Golf EL 139 – Golf [UM Catalog] 1.00 01/01/1950 - 12/31/9999
PEAC 2901.0 — Strength Train EL 1XX – Generic 100 Level Exercise & Leisure Act 1.00 01/01/1950 - 12/31/9999
PED 1022 — Driver Education I UM 1XX – Generic 100 Level General University 2.00 01/01/1950 - 12/31/9999
PED 1031 — Concpt/Wellness UM 1XX – Generic 100 Level General University 1.00 01/01/1950 - 12/31/9999
PED 2022.0 — Basketball Coach EL 354 – Coaching Basketball [UM Catalog] 2.00 01/01/1950 - 12/31/9999
PED 2032.0 — Footbl Coaching EL 352 – Coaching Football [UM Catalog] 2.00 01/01/1950 - 12/31/9999
PHIL 1003 — Introduction to Philosophy Phil 101 – Introduction to Philosophy [UM Catalog] 3.00 01/01/1950 - 12/31/9999
PHIL 1023 — Logic Phil 103 – Logic: Critical Thinking [UM Catalog] 3.00 01/01/1950 - 12/31/9999
PHIL 2163 — Death and Dying. PHIL 2XX – Generic 200 Level Philosophy 3.00 01/01/1950 - 12/31/9999
PHIL 3053 — Western Political Thought I Phil 331 – Political Philosophy [UM Catalog] 3.00 01/01/1950 - 12/31/9999
PHIL 3063 — Western Political Thought II. Phil 331 – Political Philosophy [UM Catalog] 3.00 01/01/1950 - 12/31/9999
PHIL 3183 — Issues in Science and Religion. Phil 360 – Philosophical Issues in Science/Religion [UM Catalog] 3.00 01/01/1950 - 12/31/9999
PHIL 3223 — Ancient Philosophy. Phil 301 – History of Philosophy I [UM Catalog] 3.00 01/01/1950 - 12/31/9999
PHIL 3293 — Modern Philosophy Phil 302 – History of Philosophy II [UM Catalog] 3.00 01/01/1950 - 12/31/9999
PHIL 4013 — Bioethics Phil 328 – Biomedical Ethics [UM Catalog] 3.00 01/01/1950 - 12/31/9999
PHIL 4033 — Philosophy of Mind Phil 342 – Philosophy of Mind [UM Catalog] 3.00 01/01/1950 - 12/31/9999
PHIL 4053 — Philosophy of Religion Phil 351 – Philosophy of Religion [UM Catalog] 3.00 01/01/1950 - 12/31/9999
PHIL 4233 — Contemporary Philosophy Phil 521 – Contemporary Philosophy [UM Catalog] 3.00 01/01/1950 - 12/31/9999
PSCI 2013 — Amer Natl Govt Pol 101 – Introduction to American Politics [UM Catalog] 3.00 01/01/1950 - 12/31/9999
PSYC 1013 — Genl Psychology Psy 201 – Introduction to Psychology [UM Catalog] 3.00 01/01/1950 - 12/31/9999
PSYC 2033 — Human Development Psy 301 – Developmental Psychology [UM Catalog] 3.00 01/01/1950 - 12/31/9999
PSYC 3093 — Abnormal Psychology Psy 311 – Psychopathology: Integrative Approaches [UM Catalog] 3.00 01/01/1950 - 12/31/9999
SOCI 1003 — Intro Sociology Soc 101 – Introductory Sociology I [UM Catalog] 3.00 01/01/1950 - 12/31/9999
SOCI 2013 — Dev/Personality SOC 2XX – Generic 200 Level Sociology 3.00 01/01/1950 - 12/31/9999
SOCI 3033 — Marriage & Family SOC 3XX – Generic 300 Level Sociology 3.00 01/01/1950 - 12/31/9999
SOCI 4023 — Soc/Childhood SOC 4XX – Generic 400 Level Sociology 3.00 01/01/1950 - 12/31/9999
SPAN 1013 — Elementary Spanish I Span 101 – Elementary Spanish I [UM Catalog] 3.00 01/01/1950 - 12/31/9999
SPAN 1013.0 — Elem Spanish I Span 101 – Elementary Spanish I [UM Catalog] 3.00 01/01/1950 - 12/31/9999
SPAN 1023 — Elementary Spanish II Span 102 – Elementary Spanish II [UM Catalog] 3.00 01/01/1950 - 12/31/9999
SPAN 1023.0 — Elem Spanish II Span 102 – Elementary Spanish II [UM Catalog] 3.00 01/01/1950 - 12/31/9999
SPAN 2033 — Intermediate Spanish I Span 201 – Intermediate Spanish I [UM Catalog] 3.00 01/01/1950 - 12/31/9999
SPAN 2043 — Intermediate Spanish II Span 202 – Intermediate Spanish II [UM Catalog] 3.00 01/01/1950 - 12/31/9999
SPCH 1003 — Fundamentals Speech Spch 102 – Fundamentals of Public Speaking [UM Catalog] 3.00 01/01/1950 - 12/31/9999
SPCM 1003 — Fund/Publc Spkg Spch 102 – Fundamentals of Public Speaking [UM Catalog] 3.00 01/01/1950 - 12/31/9999
SPCM 3063.0 — Debate UM 1XX – Generic 100 Level General University 3.00 01/01/1950 - 12/31/9999
SPCM 4023.0 — Com Criticism UM 1XX – Generic 100 Level General University 3.00 01/01/1950 - 12/31/9999